Weather History for Orlando, FL

Change the Weather History Date:

Thursday, April 4, 2013

  Actual Average Record
Temperature  
Mean Temperature 70 °F -  
Max Temperature 73 °F 79 °F 91 °F (2012)
Min Temperature 68 °F 59 °F 53 °F (2005)
Cooling Degree Days 6    
Growing Degree Days 20 (Base 50)    
Moisture  
Dew Point 67 °F    
Average Humidity 87    
Maximum Humidity 100    
Minimum Humidity 71    
Precipitation  
Precipitation 0.11 in - - ()
Sea Level Pressure  
Sea Level Pressure 29.98 in    
Wind  
Wind Speed 10 mph (South)    
Max Wind Speed 22 mph    
Max Gust Speed 29 mph    
Visibility 9 miles    
Events Rain    
Averages and records for this station are not official NWS values.
T = Trace of Precipitation, MM = Missing Value Source: NWS Daily Summary

Daily Weather History Graph

Daily Weather History Graph

Search for Another Location

Airport:

Trip Planner

Search our weather history database for the weather conditions in past years. The results will help you decide how hot, cold, wet, or windy it might be!

Date:

Astronomy

Apr. 04, 2013 Rise Set
Actual Time 7:11 AM EDT 7:45 PM EDT
Civil Twilight 6:47 AM EDT 8:08 PM EDT
Nautical Twilight 6:19 AM EDT 8:36 PM EDT
Astronomical Twilight 5:51 AM EDT 9:05 PM EDT
Moon 3:10 AM EDT (4/4) 2:27 PM EDT (4/4)
Length of Visible Light 13h 21m
Length of Day
12h 33m
Waning Crescent, 34% of the Moon is Illuminated
Apr 4
Waning Crescent
Apr 10
New
Apr 18
First Quarter
Apr 25
Full
May 2
Last Quarter

Hourly Weather History & Observations

Time (EDT) Temp. Dew Point Humidity Pressure Visibility Wind Dir Wind Speed Gust Speed Precip Events Conditions
12:53 AM 69.1 °F 66.9 °F 93% 30.03 in 8.0 mi ESE 9.2 mph - 0.05 in   Mostly Cloudy
1:34 AM 69.8 °F 69.8 °F 100% 30.01 in 6.0 mi SE 9.2 mph - N/A   Overcast
1:44 AM 69.8 °F 69.8 °F 100% 30.00 in 6.0 mi SE 9.2 mph - N/A   Overcast
1:53 AM 70.0 °F 69.1 °F 97% 30.02 in 6.0 mi SE 5.8 mph - N/A   Overcast
2:53 AM 71.1 °F 69.1 °F 93% 30.01 in 9.0 mi ESE 5.8 mph - N/A   Mostly Cloudy
3:11 AM 71.6 °F 68.0 °F 88% 29.99 in 9.0 mi ESE 6.9 mph - N/A   Overcast
3:53 AM 71.1 °F 69.1 °F 93% 30.00 in 8.0 mi SE 5.8 mph - N/A   Overcast
4:36 AM 69.8 °F 68.0 °F 94% 29.96 in 9.0 mi SSE 9.2 mph - N/A   Mostly Cloudy
4:53 AM 70.0 °F 68.0 °F 93% 29.98 in 9.0 mi SSE 6.9 mph - N/A   Scattered Clouds
5:53 AM 70.0 °F 69.1 °F 97% 29.97 in 9.0 mi South 9.2 mph - 0.01 in   Mostly Cloudy
6:11 AM 71.6 °F 69.8 °F 94% 29.98 in 9.0 mi South 9.2 mph - N/A   Mostly Cloudy
6:46 AM 71.6 °F 68.0 °F 88% 29.98 in 10.0 mi South 11.5 mph 25.3 mph N/A   Overcast
6:53 AM 71.1 °F 68.0 °F 90% 30.00 in 10.0 mi SSW 12.7 mph 23.0 mph N/A   Overcast
7:53 AM 70.0 °F 66.9 °F 90% 29.94 in 10.0 mi South 20.7 mph 28.8 mph 0.01 in   Overcast
8:00 AM 69.8 °F 66.2 °F 88% 29.92 in 10.0 mi South 21.9 mph 28.8 mph N/A   Mostly Cloudy
8:53 AM 72.0 °F 66.9 °F 84% 29.95 in 10.0 mi SW 17.3 mph 24.2 mph N/A   Partly Cloudy
9:15 AM 71.6 °F 66.2 °F 83% 29.99 in 10.0 mi NW 9.2 mph - N/A   Mostly Cloudy
9:53 AM 72.0 °F 66.9 °F 84% 30.01 in 10.0 mi West 5.8 mph - N/A   Overcast
10:53 AM 73.9 °F 66.9 °F 79% 30.01 in 10.0 mi South 9.2 mph - N/A   Overcast
11:53 AM 73.9 °F 68.0 °F 82% 30.02 in 10.0 mi SSW 10.4 mph - N/A   Partly Cloudy
12:53 PM 73.0 °F 66.0 °F 79% 30.01 in 10.0 mi SW 10.4 mph - N/A   Clear
1:53 PM 72.0 °F 66.0 °F 81% 30.03 in 10.0 mi SW 17.3 mph 21.9 mph 0.00 in Rain Light Rain
2:02 PM 71.6 °F 66.2 °F 83% 30.02 in 10.0 mi WSW 16.1 mph 25.3 mph 0.00 in Rain Light Rain
2:53 PM 70.0 °F 68.0 °F 93% 30.01 in 7.0 mi SSW 18.4 mph 25.3 mph N/A Rain Light Rain
3:00 PM 69.8 °F 68.0 °F 94% 29.99 in 9.0 mi SSW 17.3 mph 26.5 mph N/A Rain Light Rain
3:53 PM 69.1 °F 66.0 °F 90% 29.96 in 10.0 mi South 17.3 mph 25.3 mph N/A Rain Light Rain
4:53 PM 69.1 °F 63.0 °F 81% 29.90 in 10.0 mi SW 15.0 mph - 0.01 in   Scattered Clouds
5:53 PM 71.1 °F 63.0 °F 75% 29.89 in 10.0 mi SSW 6.9 mph - 0.00 in   Clear
6:53 PM 72.0 °F 62.1 °F 71% 29.91 in 10.0 mi West 3.5 mph - 0.01 in   Clear
7:53 PM 70.0 °F 63.0 °F 78% 29.89 in 10.0 mi Calm Calm - N/A   Clear
8:53 PM 68.0 °F 64.0 °F 87% 29.94 in 10.0 mi West 4.6 mph - 0.01 in   Clear
9:53 PM 68.0 °F 63.0 °F 84% 29.96 in 10.0 mi Calm Calm - N/A   Scattered Clouds
10:53 PM 69.1 °F 62.1 °F 78% 29.95 in 10.0 mi SSW 5.8 mph - 0.01 in   Overcast
11:53 PM 68.0 °F 62.1 °F 81% 29.94 in 10.0 mi South 12.7 mph - N/A   Mostly Cloudy